Torna al catalogo

ARIANE 44LP DEB

AttivoGTO
NORAD 27660·DEBRIS·🇫🇷 France

Lanciato Aug 8, 1989 da Guiana Space Centre

Loading…

TLE

ObsoletoSource: Space-Track

Epoca: Sep 14, 2026, 05:26 UTC

1 27660U 89062Q   26257.22658045  .00001181  00000-0  10279-1 0  9991
2 27660   7.4201   7.6228 7053479 233.1765  39.7087  2.41559076121517

Traccia ARIANE 44LP DEB in tempo reale con AllMySat

Download on the App Store